Tracking 19293 objects as of 21-Nov-2018
HD Live streaming from Space Station
objects crossing your sky now

EKRAN 4

Track EKRAN 4 now!
EKRAN 4 is classified as:


NORAD ID: 11561
Int'l Code: 1979-087A
Perigee: 35,793.9 km
Apogee: 35,797.9 km
Inclination: 11.9 °
Period: 1,436.2 minutes
Semi major axis: 42166 km
RCS: 0.1995 m2 (medium)
Launch date: October 3, 1979
Source: Commonwealth of Independent States (former USSR) (CIS)
Launch site: TYURATAM MISSILE AND SPACE COMPLEX (TTMTR)
aabbcc
Your satellite tracking list
Your tracking list is empty




NASA's NSSDC Master Catalog

Two Line Element Set (TLE):
1 11561U 79087A   18323.71185113  .00000089  00000-0  00000+0 0  9995
2 11561  11.9159 316.7378 0000469 342.5159  68.4794  1.00264102105184
Source of the keplerian elements: AFSPC